Date String (YYYY-MM-DD hh:mm:ss) UTC,Instrument flags,absolute air pressure of the measurement (hPa),sample flow rate (lpm),inlet stack bypass flow (lpm),air temperature of the measurement (°C),ambient temperature measured by the external sensor (°C),aerosol sample conditioner tube jacket temperature (°C),OPC LED temperature (°C),internal box temperature (°C),relative humidity of the measurement (%),span deviation,mass concentration of particles derived from Lorenz-Mie calculation of OPC scattering (μg/m³),mass concentration of particles derived from Lorenz-Mie calculation of OPC scattering (μg/m³),mass concentration of particles derived from Lorenz-Mie calculation of OPC scattering (μg/m³)
DateTimeUTC,F1_M11,P_M11,Q1_M11,Q2_M11,T1_M11,T2_M11,T3_M11,T4_M11,T5_M11,U1_M11,ZSPAN_M11,X2_M11,X0_M11,X1_M11
2023-12-01 17:00:00,SystemResetWarning,0821.3,5.01,000.00,019.0,018.9,000.0,027.2,020.4,18.3,0002.8,0012.51,0016.93,0011.79
2023-12-01 17:01:00,SystemResetWarning,0821.3,5.00,000.00,019.0,018.7,000.0,027.2,020.3,18.4,0002.9,0012.53,0017.08,0011.80
2023-12-01 17:02:00,SystemResetWarning,0821.3,4.99,000.00,019.0,018.6,000.0,027.2,020.1,18.5,0002.5,0012.57,0017.12,0011.84
2023-12-01 17:03:00,SystemResetWarning,0821.3,4.99,000.00,019.0,018.5,000.0,027.2,020.0,18.4,0002.1,0012.67,0017.16,0011.93
2023-12-01 17:04:00,SystemResetWarning,0821.3,5.01,000.00,018.9,018.4,000.0,027.2,020.0,18.4,0002.1,0012.75,0017.29,0012.00
2023-12-01 17:05:00,SystemResetWarning,0821.3,5.01,000.00,018.9,018.3,000.0,027.2,020.0,18.5,0002.1,0012.79,0017.28,0012.07
2023-12-01 17:06:00,SystemResetWarning,0821.3,4.98,000.00,018.9,018.2,000.0,027.2,020.0,18.4,0002.1,0012.84,0017.45,0012.13
2023-12-01 17:07:00,SystemResetWarning,0821.3,5.01,000.00,018.9,018.2,000.0,027.2,020.0,18.5,0001.8,0012.90,0017.72,0012.19
2023-12-01 17:08:00,SystemResetWarning,0821.3,5.01,000.00,018.8,018.1,000.0,027.2,020.0,18.5,0001.5,0012.92,0018.44,0012.22
2023-12-01 17:09:00,SystemResetWarning,0821.3,5.00,000.00,018.8,018.1,000.0,027.2,020.0,18.4,0001.5,0012.90,0018.56,0012.26
2023-12-01 17:10:00,SystemResetWarning,0821.3,5.00,000.00,018.8,018.0,000.0,027.2,020.0,18.4,0001.5,0012.93,0018.52,0012.29
2023-12-01 17:11:00,SystemResetWarning,0821.3,5.00,000.00,018.8,017.9,000.0,027.2,020.0,18.6,0001.4,0013.01,0018.76,0012.36
2023-12-01 17:12:00,SystemResetWarning,0821.3,5.00,000.00,018.8,017.9,000.0,027.2,020.0,18.6,0001.6,0013.07,0019.04,0012.42
2023-12-01 17:13:00,SystemResetWarning,0821.3,5.00,000.00,018.8,017.9,000.0,027.2,020.0,18.6,0001.7,0013.10,0019.03,0012.46
2023-12-01 17:14:00,SystemResetWarning,0821.3,5.00,000.00,018.8,017.8,000.0,027.2,020.0,18.6,0001.9,0013.08,0019.01,0012.45
2023-12-01 17:15:00,SystemResetWarning,0821.3,5.00,000.00,018.8,017.8,000.0,027.2,020.0,18.5,0002.2,0013.08,0018.98,0012.44
2023-12-01 17:16:00,SystemResetWarning,0821.3,5.00,000.00,018.8,017.8,000.0,027.2,020.0,18.5,0001.9,0013.15,0019.52,0012.43
2023-12-01 17:17:00,SystemResetWarning,0821.3,5.00,000.00,018.8,017.8,000.0,027.2,020.0,18.5,0001.8,0013.16,0019.66,0012.41
2023-12-01 17:18:00,SystemResetWarning,0821.3,5.01,000.00,018.8,017.8,000.0,027.2,020.0,18.5,0001.5,0013.16,0019.62,0012.39
2023-12-01 17:19:00,SystemResetWarning,0821.3,5.01,000.00,018.8,017.8,000.0,027.2,020.0,18.5,0001.4,0013.20,0019.77,0012.39
2023-12-01 17:20:00,SystemResetWarning,0821.3,5.01,000.00,018.8,017.8,000.0,027.2,020.0,18.4,0001.5,0013.28,0019.86,0012.39
2023-12-01 17:21:00,SystemResetWarning,0821.3,5.00,000.00,018.7,017.8,000.0,027.2,020.0,18.5,0001.6,0013.30,0019.92,0012.38
2023-12-01 17:22:00,SystemResetWarning,0821.3,4.99,000.00,018.7,017.7,000.0,027.2,020.0,18.5,0002.0,0013.30,0019.74,0012.36
2023-12-01 17:23:00,SystemResetWarning,0821.3,4.99,000.00,018.7,017.7,000.0,027.2,020.0,18.5,0001.7,0013.26,0019.31,0012.35
2023-12-01 17:24:00,SystemResetWarning,0821.3,5.01,000.00,018.7,017.7,000.0,027.2,020.0,18.4,0001.3,0013.24,0019.28,0012.32
2023-12-01 17:25:00,SystemResetWarning,0821.2,5.01,000.00,018.7,017.7,000.0,027.2,020.0,18.3,0001.2,0013.22,0019.32,0012.31
2023-12-01 17:26:00,SystemResetWarning,0821.2,5.01,000.00,018.7,017.7,000.0,027.2,020.0,18.4,0001.6,0013.20,0019.50,0012.30
2023-12-01 17:27:00,SystemResetWarning,0821.2,5.00,000.00,018.8,017.7,000.0,027.2,020.0,18.5,0001.9,0013.18,0019.43,0012.29
2023-12-01 17:28:00,SystemResetWarning,0821.2,5.00,000.00,018.8,017.7,000.0,027.2,020.0,18.4,0001.8,0013.18,0019.49,0012.27
2023-12-01 17:29:00,SystemResetWarning,0821.2,4.99,000.00,018.8,017.7,000.0,027.2,020.0,18.4,0001.9,0013.21,0019.48,0012.27
2023-12-01 17:30:00,SystemResetWarning,0821.3,5.00,000.00,018.8,017.7,000.0,027.2,020.0,18.4,0002.1,0013.18,0018.88,0012.25
2023-12-01 17:31:00,SystemResetWarning,0821.3,5.00,000.00,018.8,017.7,000.0,027.2,020.0,18.5,0001.4,0013.11,0018.77,0012.25
2023-12-01 17:32:00,SystemResetWarning,0821.2,5.00,000.00,018.8,017.7,000.0,027.2,020.0,18.4,0000.8,0013.10,0019.32,0012.25
2023-12-01 17:33:00,SystemResetWarning,0821.3,5.01,000.00,018.8,017.7,000.0,027.2,020.0,18.4,0000.9,0013.11,0019.59,0012.26
2023-12-01 17:34:00,SystemResetWarning,0821.3,5.01,000.00,018.8,017.7,000.0,027.2,020.0,18.4,0000.7,0013.16,0019.75,0012.26
2023-12-01 17:35:00,SystemResetWarning,0821.3,5.00,000.00,018.8,017.7,000.0,027.2,020.0,18.4,0001.2,0013.19,0019.91,0012.25
2023-12-01 17:36:00,SystemResetWarning,0821.2,4.99,000.00,018.8,017.7,000.0,027.2,020.0,18.3,0001.5,0013.22,0020.03,0012.27
2023-12-01 17:37:00,SystemResetWarning,0821.2,4.99,000.00,018.8,017.7,000.0,027.2,020.0,18.4,0000.9,0013.21,0020.35,0012.26
2023-12-01 17:38:00,SystemResetWarning,0821.2,4.99,000.00,018.8,017.7,000.0,027.2,020.0,18.5,0000.5,0013.16,0020.09,0012.25
2023-12-01 17:39:00,SystemResetWarning,0821.2,5.00,000.00,018.8,017.7,000.0,027.2,020.0,18.6,0000.6,0013.14,0019.87,0012.26
2023-12-01 17:40:00,SystemResetWarning,0821.2,5.00,000.00,018.8,017.7,000.0,027.2,020.0,18.5,0000.2,0013.12,0019.79,0012.26
2023-12-01 17:41:00,SystemResetWarning,0821.2,5.00,000.00,018.8,017.7,000.0,027.2,020.0,18.7,0000.0,0013.11,0019.80,0012.26
2023-12-01 17:42:00,SystemResetWarning,0821.3,5.01,000.00,018.8,017.7,000.0,027.2,020.0,18.7,0000.2,0013.18,0019.79,0012.27
2023-12-01 17:43:00,SystemResetWarning,0821.4,5.01,000.00,018.7,017.7,000.0,027.2,020.0,18.7,0000.4,0013.25,0019.46,0012.29
2023-12-01 17:44:00,SystemResetWarning,0821.2,5.01,000.00,018.7,017.7,000.0,027.2,020.0,18.4,0000.2,0013.27,0019.22,0012.28
2023-12-01 17:45:00,SystemResetWarning,0821.1,4.99,000.00,018.7,017.7,000.0,027.2,020.0,18.4,-000.0,0013.29,0019.65,0012.27
2023-12-01 17:46:00,SystemResetWarning,0821.3,4.99,000.00,018.7,017.7,000.0,027.2,020.0,18.6,0000.2,0013.31,0020.25,0012.30
2023-12-01 17:47:00,SystemResetWarning,0821.0,4.99,000.00,018.7,017.7,000.0,027.2,020.0,18.6,0000.3,0013.31,0020.81,0012.29
2023-12-01 17:48:00,SystemResetWarning,0821.1,5.00,000.00,018.8,017.7,000.0,027.2,020.0,18.6,0000.8,0013.32,0021.27,0012.30
2023-12-01 17:49:00,SystemResetWarning,0821.1,5.00,000.00,018.7,017.7,000.0,027.2,020.0,18.4,0001.0,0013.39,0021.55,0012.33
2023-12-01 17:50:00,SystemResetWarning,0821.1,5.00,000.00,018.7,017.7,000.0,027.2,020.0,18.3,0000.8,0013.42,0021.63,0012.32
2023-12-01 17:51:00,SystemResetWarning,0821.1,5.00,000.00,018.7,017.7,000.0,027.2,020.0,18.4,0000.9,0013.41,0021.69,0012.34
2023-12-01 17:52:00,SystemResetWarning,0821.1,5.00,000.00,018.7,017.7,000.0,027.2,020.0,18.5,0001.1,0013.40,0022.27,0012.34
2023-12-01 17:53:00,SystemResetWarning,0821.1,5.01,000.00,018.7,017.7,000.0,027.2,020.0,18.6,0001.5,0013.40,0022.32,0012.35
2023-12-01 17:54:00,SystemResetWarning,0821.0,4.99,000.00,018.7,017.7,000.0,027.2,020.0,18.7,0001.7,0013.39,0022.86,0012.37
2023-12-01 17:55:00,SystemResetWarning,0821.0,4.99,000.00,018.7,017.7,000.0,027.2,020.0,18.7,0001.3,0013.44,0023.00,0012.39
2023-12-01 17:56:00,SystemResetWarning,0821.0,5.00,000.00,018.7,017.7,000.0,027.2,020.0,18.6,0001.3,0013.40,0022.40,0012.40
2023-12-01 17:57:00,SystemResetWarning,0820.9,5.00,000.00,018.7,017.7,000.0,027.2,020.0,18.5,0001.4,0013.39,0022.08,0012.41
2023-12-01 17:58:00,SystemResetWarning,0821.2,5.00,000.00,018.7,017.7,000.0,027.2,020.0,18.5,0000.7,0013.43,0021.37,0012.43
2023-12-01 17:59:00,SystemResetWarning,0821.1,5.00,000.00,018.7,017.7,000.0,027.2,020.0,18.4,-000.2,0013.45,0021.07,0012.44
